Hibbing, MN

5:51 PM CDT on August 24, 2016 (GMT -0500)
Chisholm-hibbing

Weather History for KHIB - May, 2013

Change the Weather History Date:

Sunday, May 12, 2013

  Actual Average Record
Temperature  
Mean Temperature 38 °F -  
Max Temperature 53 °F 62 °F 86 °F (1977)
Min Temperature 24 °F 36 °F 23 °F (1967)
Degree Days  
Heating Degree Days 27    
Moisture  
Dew Point 17 °F    
Average Humidity 48    
Maximum Humidity 75    
Minimum Humidity 24    
Precipitation  
Precipitation 0.00 in - - ()
Sea Level Pressure  
Sea Level Pressure 30.18 in    
Wind  
Wind Speed 10 mph (NW)    
Max Wind Speed 20 mph    
Max Gust Speed 29 mph    
Visibility 10 miles    
Events      
Averages and records for this station are not official NWS values.
T = Trace of Precipitation, MM = Missing Value Source: NWS Daily Summary

Daily Weather History Graph

Daily Weather History Graph

Search for Another Location

Airport or City:

Trip Planner

Search our weather history database for the weather conditions in past years. The results will help you decide how hot, cold, wet, or windy it might be!

Date:

Astronomy

May. 12, 2013 Rise Set
Actual Time 5:38 AM CDT 8:38 PM CDT
Civil Twilight 5:02 AM CDT 9:14 PM CDT
Nautical Twilight 4:16 AM CDT 10:00 PM CDT
Astronomical Twilight 3:19 AM CDT 10:57 PM CDT
Moon 7:31 AM CDT (5/12) 11:07 PM CDT (5/12)
Length of Visible Light 16h 11m
Length of Day
14h 59m
Waxing Crescent, 7% of the Moon is Illuminated
May 12
Waxing Crescent
May 17
First Quarter
May 24
Full
May 31
Last Quarter
Jun 8
New

Hourly Weather History & Observations

Time (CDT) Temp. Windchill Dew Point Humidity Pressure Visibility Wind Dir Wind Speed Gust Speed Precip Events Conditions
12:53 AM 27.0 °F 18.7 °F 19.0 °F 72% 30.20 in 10.0 mi NNW 8.1 mph - N/A   Clear
1:53 AM 27.0 °F 20.5 °F 19.0 °F 72% 30.22 in 10.0 mi WNW 5.8 mph - N/A   Clear
2:53 AM 26.1 °F 17.6 °F 18.0 °F 71% 30.20 in 10.0 mi NW 8.1 mph - N/A   Clear
3:53 AM 25.0 °F 15.5 °F 17.1 °F 72% 30.19 in 10.0 mi NNW 9.2 mph - N/A   Clear
4:53 AM 24.1 °F 17.0 °F 16.0 °F 71% 30.21 in 10.0 mi NW 5.8 mph - N/A   Clear
5:53 AM 24.1 °F 17.0 °F 17.1 °F 75% 30.22 in 10.0 mi NW 5.8 mph - N/A   Clear
6:53 AM 30.0 °F 21.7 °F 19.9 °F 66% 30.22 in 10.0 mi NW 9.2 mph - N/A   Clear
7:53 AM 33.1 °F 22.6 °F 19.9 °F 59% 30.23 in 10.0 mi NNW 16.1 mph - N/A   Clear
8:53 AM 36.0 °F 27.1 °F 19.0 °F 50% 30.23 in 10.0 mi NW 13.8 mph 27.6 mph N/A   Clear
9:53 AM 39.9 °F 32.1 °F 12.9 °F 33% 30.22 in 10.0 mi North 13.8 mph - N/A   Clear
10:53 AM 42.1 °F 33.3 °F 16.0 °F 35% 30.22 in 10.0 mi NW 19.6 mph 25.3 mph N/A   Clear
11:53 AM 45.0 °F 38.2 °F 17.1 °F 33% 30.20 in 10.0 mi NW 15.0 mph 23.0 mph N/A   Clear
12:53 PM 48.0 °F - 19.0 °F 32% 30.19 in 10.0 mi WNW 16.1 mph 21.9 mph N/A   Clear
1:53 PM 48.9 °F - 17.1 °F 28% 30.17 in 10.0 mi North 15.0 mph 25.3 mph N/A   Clear
2:53 PM 51.1 °F - 18.0 °F 27% 30.16 in 10.0 mi NNW 17.3 mph 28.8 mph N/A   Clear
3:53 PM 52.0 °F - 18.0 °F 26% 30.15 in 10.0 mi NW 17.3 mph 25.3 mph N/A   Clear
4:53 PM 52.0 °F - 18.0 °F 26% 30.14 in 10.0 mi NW 15.0 mph 24.2 mph N/A   Clear
5:53 PM 51.1 °F - 18.0 °F 27% 30.14 in 10.0 mi NW 11.5 mph - N/A   Clear
6:53 PM 51.1 °F - 15.1 °F 24% 30.12 in 10.0 mi North 11.5 mph - N/A   Clear
7:53 PM 48.0 °F - 12.9 °F 24% 30.12 in 10.0 mi NE 6.9 mph - N/A   Clear
8:53 PM 39.0 °F - 15.1 °F 38% 30.14 in 10.0 mi Calm Calm - N/A   Clear
9:53 PM 30.0 °F - 16.0 °F 56% 30.16 in 10.0 mi Calm Calm - N/A   Clear
10:53 PM 28.9 °F - 17.1 °F 61% 30.16 in 10.0 mi Calm Calm - N/A   Clear
11:53 PM 27.0 °F - 18.0 °F 69% 30.15 in 10.0 mi Calm Calm - N/A   Clear